Regional Weather Roundup
Issued by NWS Newport/Morehead, NC

Current Version | Previous Version | Graphics & Text | Print | Product List | Glossary On
Versions: 1 2 3 4 5 6 7 8 9 10 11 12 13 14 15 16 17 18 19 20 21 22 23 24 25 26 27 28 29 30 31 32 33 34 35 36 37 38 39 40 41 42 43 44 45 46 47 48 49 50
000 ASUS42 KMHX 281822 RWRMHX WEATHER ROUNDUP FOR EASTERN NORTH CAROLINA NATIONAL WEATHER SERVICE NEWPORT/MOREHEAD CITY NC 100 PM EST FRI NOV 28 2014 NOTE: "FAIR" INDICATES FEW OR NO CLOUDS BELOW 12,000 FEET WITH NO SIGNIFICANT WEATHER AND/OR OBSTRUCTIONS TO VISIBILITY NCZ015>017-031-032-045>047-102-103-281900- NORTH COAST CITY SKY/WX TMP DP RH WIND PRES REMARKS EDENTON MOSUNNY 43 24 47 N8 30.28F ELIZABETH CITY PTSUNNY 47 25 42 NW7 30.28F KITTY HAWK CLEAR 43 21 42 NW8G17 30.26F MANTEO SUNNY 42 23 45 N9G17 30.28F $$ NCZ045>047-081-094-103-104-281900- CENTRAL COAST CITY SKY/WX TMP DP RH WIND PRES REMARKS FRISCO SUNNY 45 28 51 N8 30.28S SWANQUARTER N/A 45 N/A N/A VRB9G15 30.24F $$ NCZ095-097-098-100-101-281900- SOUTHERN COAST CITY SKY/WX TMP DP RH WIND PRES REMARKS BEAUFORT SUNNY 45 25 45 N8 30.29F CEDAR ISLAND N/A 43 N/A N/A N13G22 30.33S JACKSONVILLE SUNNY 45 21 38 N13 30.30F PINEY ISLAND CLEAR 45 23 42 N14 30.29F WILMINGTON SUNNY 46 22 38 N8 30.32F $$ NCZ011>013-027>030-043-044-078>080-089-090>093-098-281900- COASTAL PLAIN CITY SKY/WX TMP DP RH WIND PRES REMARKS AHOSKIE SUNNY 41 21 45 NW3 30.30F CLINTON SUNNY 44 21 40 CALM 30.32F ELIZABETHTOWN SUNNY 44 20 38 NW6 30.32F GOLDSBORO SUNNY 44 20 38 VRB2 30.29F GREENVILLE SUNNY 43 23 45 NW3 30.30F HAVELOCK SUNNY 45 21 38 N9 30.30F KENANSVILLE SUNNY 44 20 38 NW5 30.32F KINSTON SUNNY 45 21 39 N7 30.31F NEW BERN SUNNY 46 22 38 VRB6 30.31F RICHLANDS SUNNY 45 19 36 N10 30.31F ROCKY MOUNT SUNNY 44 22 41 W6 30.30F WASHINGTON SUNNY 43 21 41 N7 30.29F WHITEVILLE SUNNY 45 21 38 NE7 30.33F $$ AMZ130-135-150-152-154-156-158-170-250-252-270-ANZ085-086-088-633-658-670-281900- MARINE OBSERVATIONS STATION/POSITION TIME TEMP WIND PRES WAVE SWELL AIR SEA DIR/SP/G HT/PER HT/PER (UTC) (F) (DEG/KT/KT) (MB) (FT/S) (FT/S) CHESAPEAKE LIGHT 1800 40 330/ 19/ 21 1025.0 64 E VA BEACH 1800 43 64 340/ 17/ 23 1023.0 7/ 8 2/ 9 DUCK 1800 40 52 330/ 18/ 21 1024.1 2 E DUCK 1800 54 N/A 5/ 6 2/11 10 NE DUCK 1800 56 N/A 6/ 6 2/11 OREGON INLET 1800 42 50 310/ 12/ 16 1024.9 13E OREGON INLT 1800 59 N/A 7/ 7 2/13 HATTERAS CG 1800 42 53 350/ 14/ 17 1025.4 DIAMOND BUOY NOT AVBL 17 S OCRACOKE NOT AVBL CAPE LOOKOUT 1800 43 360/ 12/ 16 1025.4 BEAUFORT LAB 1800 43 54 360/ 10/ 13 1024.7 30 SE NEW RIVER 1800 44 67 10/ 14/ 17 1026.1 4/ 5 2/ 8 5 SE WRIGHTSVLE 1800 45 58 30/ 10/ 12 1026.4 225 S CAPE HAT 1656 58 72 330/ 14/ 21 1022.1 10/ 8 8/ 8 41 SE CHARLESTON 1800 47 72 10/ 14/ 19 1026.7 6/ 6 2/ 9 $$

USA.gov is the U.S. government's official web portal to all federal, state and local government web resources and services.